Wind_Speed
18 17 20 23 27 33 34 34 24 3 9 17 23 33 33 32 32 33 34 32 27 28 29 28 32 26 37 34 15 29 34 56 39 42 38 23 25 32 28 37 39 23 18 15 12 7 10 28 25 24 23 18 22 22
19 20 20 21 25 29 35 34 29 3 10 11 28 30 32 33 32 33 33 33 32 29 26 29 27 28 34 39 38 17 25 34 53 30 21 35 24 28 39 29 37 30 43 27 28 31 10 16 18 15 18 18 27 28
17 20 21 22 23 27 32 35 28 3 10 15 23 23 35 35 34 34 35 34 31 30 29 30 29 32 35 31 35 34 25 30 44 37 33 39 25 31 29 32 34 38 35 28 27 33 25 14 9 9 16 23 27 30
15 18 21 22 22 25 29 35 26 8 8 10 12 15 25 30 33 33 32 28 26 27 28 31 28 25 25 31 33 40 34 19 24 43 50 35 32 31 36 27 28 35 39 40 37 25 26 29 25 26 27 31 33 33
14 17 19 21 22 22 26 30 31 12 5 10 9 8 11 13 19 22 25 23 22 22 13 25 29 27 29 29 28 35 37 27 26 30 42 35 27 39 38 38 33 39 35 42 43 34 26 20 24 27 33 33 33 31
14 15 18 19 21 21 21 26 29 18 3 2 5 10 10 14 18 19 19 23 22 21 24 22 14 20 25 27 31 28 28 30 33 46 31 24 27 25 13 25 41 41 39 37 36 34 33 24 31 29 26 27 32 32
14 15 16 18 18 19 19 19 21 26 11 6 8 10 12 13 16 22 19 18 18 22 22 23 21 29 19 15 24 25 28 32 47 32 27 26 21 21 24 30 16 27 33 29 26 23 28 36 37 32 30 28 28 30
13 15 14 16 16 16 17 17 16 18 25 24 6 13 12 15 17 20 22 5 11 22 24 9 12 13 10 10 23 31 37 38 28 30 35 32 27 29 13 18 15 20 21 22 26 28 27 30 33 32 30 29 28 28
14 14 13 14 15 14 13 14 13 11 14 21 21 4 11 18 17 22 21 21 12 16 9 11 12 9 8 12 17 17 26 18 18 24 29 34 35 16 25 25 27 33 35 32 29 28 31 32 30 30 28 29 28 25
13 10 12 12 13 14 11 12 12 8 6 8 14 16 17 16 11 13 17 18 19 25 17 9 13 15 14 16 16 9 8 13 9 14 27 18 17 14 28 30 28 27 30 26 26 30 31 32 33 30 28 27 25 23
16 12 10 12 12 12 9 9 10 10 8 7 7 6 10 13 12 5 3 3 2 3 9 12 15 16 13 13 12 6 4 5 4 9 11 11 15 18 21 26 31 29 25 23 25 27 27 25 26 26 27 29 29 29
18 16 14 11 10 8 7 7 5 5 7 5 4 1 5 6 4 3 3 4 2 2 4 13 14 16 16 17 5 5 5 4 2 16 10 12 25 30 28 31 29 25 22 22 28 28 26 26 26 26 25 25 26 25
20 18 17 15 10 6 5 6 5 2 3 2 3 3 3 2 1 1 2 3 3 2 6 13 15 19 11 6 7 5 3 4 17 6 7 5 22 30 32 28 21 20 20 20 21 23 22 21 21 22 23 22 22 21
19 19 19 17 15 11 7 6 5 5 3 3 2 2 2 3 4 6 7 3 2 4 9 12 12 6 11 5 5 4 7 5 2 3 3 10 13 19 22 21 22 24 25 24 23 21 20 20 20 20 21 20 19 18
18 17 15 17 17 8 7 4 4 5 5 2 1 2 3 3 2 2 5 9 9 8 6 7 7 6 7 4 3 5 6 3 5 4 5 8 9 10 17 24 28 28 25 22 21 19 20 20 20 18 20 20 21 20
15 14 12 12 8 4 5 3 2 3 3 4 1 4 5 6 5 8 10 7 6 8 7 6 4 3 2 3 3 2 5 2 4 11 9 10 11 12 15 18 21 23 22 21 20 20 20 20 19 18 18 17 18 18
12 11 9 7 5 2 2 2 3 3 2 2 2 1 2 2 5 7 6 4 7 9 6 5 3 3 5 4 3 6 5 7 9 10 8 8 8 9 14 17 19 19 18 18 19 19 19 18 18 19 18 17 17 18
11 9 9 6 4 2 3 4 4 3 4 5 6 4 4 2 1 2 2 1 5 4 4 2 2 4 2 2 2 6 6 8 8 6 6 8 11 12 17 18 17 17 18 18 18 18 18 18 17 18 19 19 20 19
11 10 11 10 7 5 4 5 6 4 5 6 6 6 5 5 4 3 2 3 4 5 4 4 2 1 4 6 4 5 7 9 9 10 12 11 12 14 18 18 16 17 19 18 17 17 17 16 16 16 17 17 17 17
12 11 12 12 11 9 6 6 8 6 5 7 7 8 9 9 8 6 6 6 7 6 7 4 5 7 4 5 6 8 12 10 10 13 13 13 13 16 19 19 17 16 18 18 17 17 16 16 16 15 15 15 15 14
13 11 11 12 13 12 9 8 11 10 12 11 10 10 11 11 11 12 11 12 12 12 11 9 12 12 9 9 9 8 7 9 8 11 11 11 12 14 19 19 18 18 17 17 17 16 16 16 15 15 14 14 14 14
13 12 10 11 13 13 11 13 12 12 11 10 10 11 13 14 12 11 11 14 19 15 11 12 10 10 11 10 8 7 8 10 10 10 13 13 12 12 13 15 17 16 16 16 17 16 16 16 15 15 14 13 12 12
14 14 15 13 10 9 9 15 14 14 10 10 11 12 12 12 11 8 10 10 10 8 9 9 9 11 10 9 8 9 8 8 8 6 14 14 13 13 13 13 13 14 15 16 16 16 16 15 14 13 12 12 12 12
14 14 13 6 11 8 12 12 11 13 10 11 11 11 8 10 11 11 14 14 11 8 8 8 10 11 9 11 10 9 8 8 8 8 10 12 14 14 16 17 16 16 15 15 15 15 15 15 15 15 15 14 14 14
16 12 8 10 9 12 12 12 13 11 12 10 10 10 6 8 9 12 13 7 9 10 10 8 9 12 11 10 11 12 11 11 11 10 11 12 13 13 14 14 15 14 13 13 13 14 15 15 16 16 16 15 13 12
10 10 10 10 11 11 10 9 13 16 14 11 8 7 9 10 9 5 9 12 11 11 11 11 12 12 13 12 11 15 15 15 16 15 15 14 12 11 10 12 13 14 14 15 15 15 15 16 17 15 13 13 13 13
17 14 13 18 17 14 14 17 15 13 13 10 10 12 11 6 8 12 11 12 12 11 10 11 13 13 14 15 15 17 15 21 21 17 15 16 15 13 13 12 11 12 13 14 15 16 16 15 14 13 13 12 12 11
19 17 20 17 19 19 16 14 16 14 14 16 17 12 6 8 11 10 10 10 11 14 16 16 16 15 16 17 16 17 19 15 12 16 17 16 15 14 14 14 14 16 15 15 16 16 15 15 14 14 14 13 12 12
24 24 22 20 18 18 14 14 14 15 17 16 15 19 20 23 22 22 22 18 15 15 16 17 18 20 20 20 21 21 20 19 18 17 18 19 19 17 17 16 16 16 17 17 18 17 17 16 15 15 15 14 15 15
21 22 23 20 17 14 14 13 13 14 14 15 16 19 21 24 26 26 27 28 28 29 31 32 31 28 26 24 23 23 24 24 26 26 26 24 22 22 22 21 21 20 20 20 21 20 19 18 18 18 18 18 18 18
18 17 19 18 17 15 14 10 10 11 11 13 14 14 13 15 15 18 19 19 20 21 21 22 24 27 33 39 37 33 27 25 25 26 27 28 29 29 25 23 24 24 23 23 24 23 23 22 20 20 19 18 18 18
17 19 18 15 14 9 8 8 9 10 11 12 12 13 13 11 9 6 6 8 11 12 12 12 14 16 19 21 25 34 38 35 32 29 31 32 33 34 32 28 28 28 28 27 26 25 25 23 21 20 20 20 19 20
17 15 13 10 8 5 3 6 7 6 6 6 9 6 3 0 0 3 6 8 9 10 12 13 13 13 15 17 19 22 28 34 35 34 34 32 34 35 33 32 30 29 28 28 28 27 26 25 24 23 23 22 21 21
Wind_Direction
353 357 358 2 360 357 358 3 4 233 177 187 202 188 192 196 200 210 211 216 225 229 231 234 233 230 238 236 215 228 221 221 225 219 218 220 226 225 226 236 241 219 189 194 188 177 239 188 167 187 228 239 242 235
352 1 1 360 3 359 358 356 2 237 168 173 187 189 196 198 201 209 210 216 226 229 235 237 235 236 243 249 244 229 212 226 209 227 191 211 215 217 220 215 222 209 214 206 211 223 231 183 204 207 226 240 234 230
351 357 4 5 6 6 0 3 4 101 184 186 182 210 206 199 201 207 210 212 225 234 240 243 247 241 244 257 262 250 235 219 223 216 201 212 208 213 198 216 217 220 218 216 218 216 196 199 201 226 234 227 227 227
352 357 2 6 9 12 6 10 15 48 158 192 198 202 202 199 205 210 211 208 221 234 242 247 239 254 239 242 254 251 250 229 233 223 222 221 224 225 222 220 212 208 200 203 213 211 205 229 244 248 228 221 225 230
353 354 0 4 10 14 12 13 19 38 122 148 164 169 185 195 207 205 203 208 222 228 246 255 251 259 261 262 260 245 251 213 198 222 208 199 212 213 211 214 215 217 213 204 207 218 216 244 250 240 229 232 238 242
358 355 356 3 6 12 14 14 21 28 122 210 187 179 173 190 195 200 207 218 220 225 224 244 250 274 257 251 243 247 252 226 225 225 207 193 213 212 215 203 214 214 214 226 233 225 233 233 243 231 223 237 248 251
356 356 354 358 5 8 12 16 16 22 35 210 156 179 193 192 195 200 208 226 224 214 214 232 252 258 266 237 243 235 229 209 202 206 212 219 234 252 231 224 174 197 210 201 210 216 209 216 215 228 239 231 240 244
349 353 352 352 0 4 3 10 17 22 19 36 183 197 191 207 214 218 215 192 217 212 230 240 239 244 226 275 200 189 203 199 217 214 219 224 213 206 205 228 216 185 189 198 206 215 220 221 225 227 231 238 235 247
347 343 350 352 353 5 359 358 6 17 30 14 31 79 225 217 215 217 226 227 227 216 210 221 232 222 227 266 230 175 192 179 172 174 184 188 185 195 217 207 194 200 212 205 198 200 211 219 228 234 235 236 244 234
351 346 348 351 348 351 12 0 349 5 7 19 19 47 56 82 180 212 201 193 217 215 218 213 209 221 226 225 222 192 147 150 174 148 159 182 188 178 170 179 198 204 209 211 211 208 212 219 220 222 229 228 226 227
358 351 333 335 344 344 355 20 6 4 348 346 15 52 33 31 54 49 80 138 134 225 200 195 203 199 196 183 181 184 142 129 142 150 156 170 168 171 174 187 201 208 212 215 218 222 217 217 213 207 204 211 219 227
345 341 335 325 329 330 329 1 25 7 27 47 99 36 353 18 26 24 353 352 325 235 189 171 194 198 182 178 145 143 101 95 144 152 161 163 154 164 180 195 205 211 220 212 199 199 200 200 207 215 222 228 233 238
327 331 326 316 315 302 304 308 337 357 336 315 240 259 260 272 194 200 204 216 276 251 200 187 179 175 145 121 113 93 93 128 135 132 151 175 181 185 193 203 207 196 195 189 190 194 201 207 213 219 225 227 233 239
325 327 327 322 305 285 265 274 287 309 314 305 291 270 230 228 245 222 198 164 178 175 155 156 154 127 118 103 101 88 124 125 101 136 171 161 181 193 196 184 189 195 198 202 206 208 212 215 214 217 226 229 234 234
318 327 333 333 328 257 221 244 258 273 307 290 264 267 328 38 50 112 148 132 148 154 158 123 91 96 84 74 98 122 158 136 172 176 198 201 209 201 198 205 209 208 209 213 215 215 212 212 215 220 226 228 215 211
314 324 342 354 16 87 162 195 210 249 279 317 345 117 79 36 70 124 129 136 144 154 154 146 109 115 110 118 129 107 130 171 192 204 204 205 216 227 231 214 210 210 211 209 209 210 212 211 215 215 209 210 209 205
308 320 334 350 14 74 129 202 209 228 237 256 211 147 128 147 96 132 125 106 158 155 139 119 111 134 144 156 170 165 197 205 217 224 221 210 211 221 205 199 199 200 203 207 208 207 208 210 214 211 210 207 207 211
293 291 300 314 316 337 240 217 212 215 230 225 198 208 216 205 146 149 150 134 183 186 190 171 163 190 185 177 179 214 221 230 236 231 210 215 222 215 197 201 204 206 205 205 206 207 206 208 210 211 213 214 216 219
284 275 277 281 286 272 264 225 214 227 224 208 221 222 213 218 226 242 251 249 224 237 269 230 234 240 250 263 277 265 247 247 249 236 237 241 237 220 209 210 211 209 205 203 203 203 204 206 207 210 212 214 216 217
299 282 272 271 267 271 255 226 216 221 212 227 227 231 236 237 250 254 251 261 272 275 265 237 225 244 271 280 276 276 248 261 256 244 241 240 236 223 216 215 214 210 206 205 206 206 206 206 204 204 206 207 208 210
305 296 277 264 261 256 244 226 214 218 225 232 231 230 242 255 251 256 260 265 265 254 257 258 252 261 274 272 280 256 248 252 262 242 236 233 223 218 216 211 207 206 208 210 212 213 212 211 207 207 207 207 211 213
284 293 296 270 254 246 239 234 225 231 232 227 230 239 246 253 259 265 270 258 258 267 269 254 259 260 263 274 268 238 233 250 271 250 224 211 208 205 203 205 205 206 210 214 215 215 213 212 210 207 207 209 213 218
276 279 283 285 237 227 222 219 226 235 226 230 239 243 250 255 262 258 254 264 273 270 267 255 249 252 256 256 251 230 240 253 260 234 200 203 201 196 201 205 207 210 218 220 215 211 209 205 202 201 202 205 211 219
267 285 289 237 202 203 218 212 220 212 228 233 229 232 239 244 248 241 250 267 279 271 265 244 240 246 250 242 252 235 235 245 228 213 209 205 202 211 215 216 218 219 218 213 208 207 208 207 207 208 211 216 222 226
262 270 238 219 210 215 212 209 206 209 223 230 225 213 221 237 239 250 261 265 242 240 250 238 238 238 230 229 241 246 247 233 237 224 211 214 207 201 206 207 207 208 209 210 212 213 212 214 216 219 219 221 227 235
235 228 220 209 205 203 191 205 216 217 220 223 222 213 227 238 240 233 226 241 235 236 238 239 239 236 230 224 219 234 233 226 225 226 221 220 216 209 217 223 226 219 215 217 219 221 221 223 224 225 228 233 237 241
224 226 223 219 205 205 206 207 207 208 211 214 226 239 249 232 225 232 229 232 241 241 241 247 248 245 242 240 232 232 237 211 214 215 222 225 215 215 221 224 226 220 219 219 218 217 217 217 218 222 225 229 234 240
225 221 226 228 220 220 223 222 222 226 233 231 226 217 215 209 218 231 236 238 240 241 236 238 241 248 252 250 246 239 243 256 253 219 218 228 223 222 221 229 230 228 223 220 219 217 218 221 224 229 233 236 239 245
217 215 220 223 219 220 231 230 226 217 218 217 219 219 226 238 246 250 249 247 250 255 253 248 246 246 246 246 245 243 241 239 232 236 238 232 236 231 231 233 233 233 231 230 227 225 225 228 231 234 239 244 248 250
213 213 215 212 215 225 236 232 232 240 242 245 245 246 249 253 259 264 267 268 268 265 262 259 253 249 245 246 246 245 243 240 241 239 233 239 242 238 239 235 234 232 231 231 231 230 232 234 236 237 239 243 247 250
210 204 197 207 219 222 237 250 251 251 251 252 256 261 263 255 253 262 266 271 273 272 271 268 267 264 255 251 253 250 249 244 237 235 234 231 229 237 235 232 236 237 234 232 232 232 233 236 238 240 243 246 249 253
199 202 214 223 229 228 224 239 251 250 249 255 258 255 252 263 278 239 229 257 275 282 285 284 280 278 272 267 256 250 248 245 246 241 234 234 232 236 234 234 238 241 241 238 238 235 235 238 242 245 248 249 250 251
210 221 221 211 209 212 197 232 248 249 255 259 263 269 285 247 165 286 292 296 299 300 299 298 295 290 283 275 266 259 247 241 239 241 246 245 237 233 232 232 234 235 237 236 238 238 238 240 242 244 247 249 250 251
Height
2857 2853 2849 2843 2836 2827 2819 2812 2805 2802 2803 2806 2811 2818 2825 2831 2838 2843 2850 2856 2861 2863 2868 2873 2876 2879 2884 2888 2889 2895 2900 2899 2903 2910 2916 2922 2930 2932 2935 2936 2941 2949 2952 2957 2964 2969 2971 2974 2979 2980 2986 2992 2994 2998
2857 2853 2848 2843 2837 2829 2820 2812 2805 2802 2804 2806 2811 2818 2823 2830 2836 2841 2846 2852 2856 2861 2864 2868 2871 2873 2876 2879 2883 2884 2888 2897 2900 2898 2902 2916 2921 2922 2923 2930 2933 2940 2939 2951 2960 2963 2967 2969 2973 2975 2981 2985 2988 2990
2857 2853 2848 2843 2838 2831 2823 2814 2805 2802 2806 2808 2813 2818 2821 2825 2831 2837 2842 2850 2853 2856 2860 2863 2865 2867 2871 2873 2875 2883 2886 2889 2893 2891 2896 2907 2911 2916 2915 2919 2925 2931 2937 2945 2952 2956 2960 2962 2965 2970 2973 2978 2983 2986
2857 2853 2849 2844 2839 2834 2826 2818 2809 2806 2808 2811 2813 2816 2819 2823 2829 2834 2839 2845 2851 2855 2857 2858 2861 2865 2867 2868 2870 2873 2880 2881 2884 2888 2889 2892 2900 2907 2911 2916 2918 2921 2929 2931 2938 2946 2955 2956 2959 2964 2969 2973 2977 2981
2857 2854 2850 2846 2841 2836 2830 2824 2816 2812 2812 2813 2815 2818 2821 2825 2829 2833 2838 2843 2847 2854 2853 2851 2853 2858 2860 2862 2863 2867 2871 2874 2878 2880 2882 2886 2892 2901 2903 2908 2911 2914 2918 2922 2927 2935 2941 2949 2955 2959 2963 2966 2971 2975
2858 2854 2851 2848 2843 2839 2834 2829 2823 2818 2817 2818 2819 2820 2822 2825 2829 2834 2838 2841 2844 2848 2851 2852 2849 2849 2852 2855 2858 2861 2861 2866 2871 2874 2874 2875 2885 2895 2895 2895 2899 2907 2913 2918 2923 2932 2937 2945 2952 2953 2956 2960 2963 2966
2859 2855 2851 2849 2846 2842 2837 2833 2829 2825 2820 2819 2821 2823 2824 2826 2829 2833 2836 2840 2842 2846 2847 2849 2849 2849 2848 2850 2849 2851 2853 2858 2861 2866 2867 2873 2882 2887 2889 2892 2893 2899 2909 2912 2919 2925 2931 2933 2940 2947 2952 2953 2956 2959
2859 2856 2853 2849 2847 2844 2840 2836 2833 2830 2826 2821 2820 2823 2825 2826 2829 2831 2834 2837 2838 2841 2844 2846 2845 2844 2845 2846 2847 2847 2850 2854 2850 2856 2864 2869 2876 2882 2882 2888 2894 2899 2905 2909 2914 2919 2925 2930 2934 2939 2944 2945 2948 2952
2859 2856 2854 2850 2847 2845 2842 2838 2836 2834 2832 2828 2824 2822 2824 2826 2827 2829 2833 2835 2837 2842 2840 2840 2841 2840 2839 2839 2843 2840 2843 2845 2849 2850 2855 2863 2868 2871 2877 2884 2888 2894 2901 2905 2906 2913 2921 2926 2929 2931 2934 2940 2943 2947
2858 2855 2854 2851 2848 2845 2843 2840 2836 2835 2834 2833 2831 2828 2827 2827 2827 2828 2830 2833 2834 2835 2836 2835 2835 2836 2840 2837 2838 2843 2844 2846 2851 2850 2853 2861 2863 2866 2873 2882 2889 2892 2898 2899 2899 2907 2913 2917 2920 2925 2930 2933 2938 2941
2857 2855 2852 2850 2848 2846 2843 2841 2838 2836 2835 2834 2834 2833 2832 2830 2830 2831 2831 2831 2832 2832 2833 2832 2833 2835 2837 2839 2840 2842 2843 2845 2845 2848 2852 2858 2861 2865 2870 2877 2882 2886 2889 2892 2898 2901 2906 2912 2916 2921 2926 2929 2931 2932
2856 2853 2850 2848 2846 2845 2843 2842 2840 2838 2837 2836 2835 2835 2834 2834 2833 2834 2834 2833 2832 2831 2830 2831 2832 2834 2836 2839 2841 2842 2841 2843 2846 2850 2852 2857 2862 2859 2861 2869 2874 2879 2883 2887 2893 2898 2903 2908 2913 2917 2920 2922 2925 2929
2854 2851 2847 2845 2843 2842 2841 2840 2839 2839 2838 2837 2837 2836 2835 2835 2834 2834 2834 2833 2832 2831 2831 2832 2834 2836 2838 2839 2840 2842 2844 2845 2845 2845 2850 2852 2854 2860 2868 2873 2873 2877 2881 2886 2893 2898 2901 2904 2908 2911 2913 2916 2919 2924
2851 2847 2843 2840 2838 2838 2838 2838 2837 2837 2837 2836 2835 2835 2835 2834 2834 2833 2833 2833 2833 2833 2833 2834 2835 2837 2839 2839 2839 2840 2844 2844 2844 2844 2847 2852 2857 2860 2864 2866 2869 2875 2882 2886 2889 2893 2895 2898 2902 2905 2908 2911 2915 2918
2848 2844 2840 2836 2831 2830 2834 2835 2835 2835 2835 2835 2835 2833 2832 2832 2831 2831 2832 2834 2834 2835 2835 2835 2835 2836 2837 2838 2840 2842 2844 2845 2845 2847 2849 2852 2855 2858 2862 2866 2871 2875 2879 2882 2884 2887 2890 2894 2898 2901 2903 2906 2910 2913
2844 2842 2839 2835 2832 2830 2832 2833 2833 2834 2834 2833 2833 2833 2833 2832 2832 2831 2832 2833 2834 2836 2837 2837 2838 2839 2840 2842 2842 2842 2843 2844 2846 2846 2850 2853 2856 2859 2861 2864 2866 2869 2873 2876 2879 2884 2888 2892 2895 2897 2900 2903 2906 2910
2840 2839 2838 2835 2833 2832 2831 2832 2832 2832 2833 2833 2833 2832 2832 2832 2833 2833 2834 2834 2835 2837 2837 2839 2840 2842 2844 2844 2844 2844 2846 2847 2847 2849 2851 2853 2855 2856 2859 2861 2863 2866 2869 2872 2876 2880 2884 2887 2890 2893 2896 2900 2903 2906
2836 2835 2834 2834 2832 2831 2831 2831 2831 2831 2831 2831 2832 2833 2833 2833 2833 2834 2834 2835 2836 2836 2837 2838 2839 2840 2841 2842 2842 2844 2845 2846 2847 2848 2850 2852 2854 2855 2858 2860 2861 2863 2866 2870 2874 2877 2880 2884 2887 2890 2893 2896 2899 2902
2831 2831 2830 2830 2830 2830 2830 2830 2830 2829 2829 2829 2830 2831 2832 2833 2833 2833 2834 2834 2835 2836 2837 2838 2838 2838 2839 2839 2839 2841 2841 2842 2843 2845 2847 2849 2851 2853 2854 2856 2858 2861 2865 2868 2872 2875 2877 2880 2884 2887 2890 2892 2895 2897
2827 2826 2825 2826 2826 2826 2827 2827 2827 2827 2827 2828 2828 2829 2830 2831 2832 2832 2833 2833 2834 2834 2835 2836 2836 2836 2838 2838 2839 2840 2841 2841 2842 2843 2844 2845 2846 2848 2851 2854 2857 2860 2863 2866 2869 2872 2875 2878 2881 2884 2886 2889 2891 2894
2823 2821 2820 2820 2821 2822 2823 2822 2823 2823 2823 2824 2825 2826 2827 2828 2829 2830 2831 2831 2831 2832 2833 2834 2834 2835 2836 2837 2837 2837 2838 2839 2840 2841 2842 2843 2844 2846 2848 2851 2855 2858 2861 2864 2867 2870 2872 2875 2878 2881 2883 2886 2888 2890
2818 2817 2815 2814 2815 2816 2816 2817 2818 2819 2821 2820 2822 2823 2823 2824 2825 2826 2827 2827 2826 2829 2830 2831 2832 2832 2833 2834 2834 2835 2837 2837 2837 2837 2838 2840 2842 2845 2847 2850 2853 2856 2859 2861 2864 2867 2869 2872 2875 2878 2880 2882 2884 2887
2812 2812 2810 2809 2809 2810 2812 2811 2813 2814 2816 2816 2818 2818 2819 2820 2821 2823 2822 2822 2823 2825 2826 2827 2828 2829 2830 2831 2832 2833 2834 2835 2835 2836 2837 2839 2842 2844 2846 2849 2851 2854 2857 2859 2861 2864 2867 2870 2872 2874 2876 2878 2881 2883
2806 2806 2804 2802 2802 2803 2804 2806 2807 2810 2811 2812 2813 2814 2816 2817 2818 2819 2818 2820 2821 2821 2822 2824 2825 2826 2827 2828 2830 2831 2832 2833 2834 2835 2836 2838 2840 2843 2845 2847 2850 2852 2854 2856 2859 2861 2864 2867 2869 2871 2873 2876 2878 2880
2802 2802 2800 2797 2797 2798 2799 2801 2803 2806 2807 2808 2810 2811 2813 2813 2814 2814 2815 2817 2816 2818 2819 2820 2822 2823 2824 2826 2827 2829 2830 2831 2832 2834 2835 2837 2838 2840 2843 2845 2847 2849 2852 2854 2857 2859 2861 2864 2866 2868 2870 2872 2874 2875
2793 2792 2792 2790 2792 2794 2795 2796 2799 2801 2803 2804 2806 2807 2808 2810 2811 2811 2811 2811 2813 2814 2816 2817 2819 2820 2821 2823 2824 2825 2826 2828 2829 2831 2833 2835 2837 2839 2841 2843 2845 2847 2849 2851 2853 2855 2857 2860 2862 2864 2865 2867 2869 2870
2783 2784 2784 2785 2787 2788 2790 2792 2794 2796 2798 2800 2801 2803 2805 2805 2806 2806 2807 2808 2810 2811 2813 2814 2815 2816 2818 2819 2821 2822 2821 2819 2823 2827 2830 2832 2834 2836 2839 2841 2843 2844 2846 2847 2849 2852 2854 2856 2858 2859 2861 2863 2864 2866
2775 2776 2778 2782 2783 2785 2786 2788 2789 2792 2793 2795 2797 2798 2799 2800 2800 2801 2803 2804 2805 2807 2808 2809 2811 2812 2814 2815 2816 2818 2818 2819 2821 2823 2826 2828 2830 2832 2835 2837 2839 2840 2842 2844 2846 2848 2849 2851 2853 2855 2856 2858 2859 2861
2766 2769 2773 2775 2778 2780 2782 2783 2785 2786 2787 2788 2791 2792 2792 2793 2795 2796 2798 2800 2801 2802 2803 2804 2805 2806 2807 2809 2810 2812 2814 2816 2818 2819 2821 2823 2825 2828 2830 2832 2834 2836 2838 2839 2841 2842 2844 2846 2848 2850 2851 2852 2854 2856
2761 2764 2767 2770 2773 2775 2776 2777 2778 2780 2782 2784 2786 2788 2788 2789 2789 2790 2790 2791 2792 2793 2794 2795 2796 2797 2799 2800 2802 2804 2806 2808 2810 2813 2815 2817 2819 2822 2824 2826 2828 2830 2831 2833 2835 2837 2838 2841 2842 2844 2846 2847 2849 2850
2758 2760 2764 2765 2767 2769 2771 2774 2775 2776 2778 2779 2779 2780 2781 2781 2783 2783 2783 2783 2783 2783 2783 2784 2783 2784 2786 2789 2790 2794 2797 2799 2801 2804 2806 2808 2811 2813 2813 2816 2820 2822 2824 2826 2828 2830 2832 2834 2836 2838 2839 2841 2842 2843
2756 2758 2760 2762 2764 2766 2767 2769 2770 2772 2773 2773 2774 2774 2774 2774 2776 2777 2777 2777 2778 2777 2777 2776 2776 2776 2775 2776 2777 2780 2783 2788 2791 2793 2795 2798 2801 2804 2805 2807 2811 2813 2816 2818 2820 2823 2825 2827 2828 2830 2832 2833 2835 2836
2755 2757 2758 2759 2760 2761 2764 2766 2766 2767 2767 2768 2768 2768 2769 2771 2773 2775 2774 2773 2773 2772 2771 2770 2769 2769 2768 2768 2768 2768 2770 2773 2778 2781 2784 2786 2789 2792 2795 2798 2801 2804 2806 2809 2811 2814 2816 2818 2821 2823 2824 2826 2828 2829